GW5891 Weather Reports


time (UTC)temp
C
wind
direction
speed
KPH
gust
KPH
rain 1hr
cm
rain 24hr
cm
rain mn
cm
humidity
%
barometer
mb
20260505040018 13 328 1.6 3.2 0.00 0.00 0.00 62 1015.1
20260505035513 13 325 1.6 3.2 0.00 0.00 0.00 61 1015.1
20260505035011 13 311 1.6 1.6 0.00 0.00 0.00 60 1015.0
20260505034507 13 333 0.0 1.6 0.00 0.00 0.00 59 1015.3
20260505034004 13 320 1.6 3.2 0.00 0.00 0.00 58 1015.2
20260505033500 13 331 1.6 3.2 0.00 0.00 0.00 59 1015.2
20260505032959 14 328 0.0 1.6 0.00 0.00 0.00 58 1015.2
20260505032456 14 349 0.0 3.2 0.00 0.00 0.00 59 1015.2
20260505031952 14 354 1.6 3.2 0.00 0.00 0.00 58 1015.3
20260505031449 14 348 3.2 3.2 0.00 0.00 0.00 57 1015.4
20260505030946 15 336 3.2 3.2 0.00 0.00 0.00 57 1015.3
20260505030442 15 334 3.2 3.2 0.00 0.00 0.00 56 1015.5
20260505025937 15 317 3.2 3.2 0.00 0.00 0.00 56 1015.3
20260505025435 15 347 3.2 4.8 0.00 0.00 0.00 56 1015.4
20260505024934 15 329 3.2 3.2 0.00 0.00 0.00 55 1015.4
20260505024431 15 2 1.6 3.2 0.00 0.00 0.00 54 1015.6
20260505023928 15 333 3.2 3.2 0.00 0.00 0.00 55 1015.5
20260505023425 15 2 3.2 3.2 0.00 0.00 0.00 55 1015.2
20260505022922 15 347 1.6 1.6 0.00 0.00 0.00 52 1015.3
20260505022420 15 344 1.6 3.2 0.00 0.00 0.00 52 1015.3
20260505021916 15 342 1.6 3.2 0.00 0.00 0.00 53 1015.2
20260505021413 15 350 3.2 3.2 0.00 0.00 0.00 55 1015.2
20260505020909 15 350 3.2 3.2 0.00 0.00 0.00 54 1015.1
20260505020404 16 355 3.2 3.2 0.00 0.00 0.00 54 1015.2
20260505015901 16 333 3.2 3.2 0.00 0.00 0.00 53 1015.2
20260505015358 16 2 3.2 3.2 0.00 0.00 0.00 51 1015.1
20260505014856 16 343 3.2 3.2 0.00 0.00 0.00 53 1015.0
20260505014352 16 318 1.6 1.6 0.00 0.00 0.00 52 1015.0
20260505013849 16 339 3.2 3.2 0.00 0.00 0.00 51 1014.9
20260505013346 16 0 3.2 3.2 0.00 0.00 0.00 51 1014.9
20260505012845 16 353 1.6 3.2 0.00 0.00 0.00 50 1014.9
20260505012343 17 351 0.0 1.6 0.00 0.00 0.00 49 1015.0
20260505011838 17 351 0.0 3.2 0.00 0.00 0.00 49 1014.8
20260505011335 17 347 3.2 3.2 0.00 0.00 0.00 49 1014.7
20260505010831 17 357 0.0 3.2 0.00 0.00 0.00 46 1014.8
20260505010327 17 357 0.0 1.6 0.00 0.00 0.00 46 1014.7
20260505005823 18 340 1.6 3.2 0.00 0.00 0.00 46 1014.8
20260505005320 18 352 3.2 3.2 0.00 0.00 0.00 45 1014.6
20260505004818 18 339 3.2 3.2 0.00 0.00 0.00 44 1014.6
20260505004314 18 343 3.2 3.2 0.00 0.00 0.00 44 1014.4
20260505003812 19 315 0.0 3.2 0.00 0.00 0.00 43 1014.4
20260505003309 20 343 1.6 1.6 0.00 0.00 0.00 42 1014.4
20260505002805 20 342 1.6 3.2 0.00 0.00 0.00 42 1014.2
20260505002304 20 324 1.6 3.2 0.00 0.00 0.00 40 1014.2
20260505001800 20 346 0.0 1.6 0.00 0.00 0.00 40 1014.1
20260505001257 21 359 0.0 1.6 0.00 0.00 0.00 39 1014.1
20260505000754 21 351 0.0 0.0 0.00 0.00 0.00 38 1013.9
20260505000252 21 311 0.0 0.0 0.00 0.00 0.00 37 1014.1
20260504235748 21 321 0.0 0.0 0.00 0.00 0.00 37 1013.9
20260504235244 21 294 0.0 0.0 0.00 0.00 0.00 37 1014.1
20260504234742 21 203 0.0 1.6 0.00 0.00 0.00 36 1014.0
20260504234239 22 299 0.0 0.0 0.00 0.00 0.00 37 1014.0
20260504233735 22 203 0.0 3.2 0.00 0.00 0.00 36 1013.8
20260504233231 22 135 1.6 3.2 0.00 0.00 0.00 36 1013.8
20260504232728 22 214 0.0 1.6 0.00 0.00 0.00 35 1013.7
20260504232225 22 41 0.0 4.8 0.00 0.00 0.00 35 1013.7
20260504231722 22 126 1.6 3.2 0.00 0.00 0.00 34 1013.6
20260504231218 22 177 1.6 4.8 0.00 0.00 0.00 34 1013.7
20260504230714 23 217 3.2 3.2 0.00 0.00 0.00 34 1013.5
20260504230214 23 109 3.2 8.0 0.00 0.00 0.00 33 1013.5
20260504225712 23 278 0.0 6.4 0.00 0.00 0.00 33 1013.5
20260504225207 23 99 0.0 3.2 0.00 0.00 0.00 33 1013.5
20260504224705 23 63 0.0 3.2 0.00 0.00 0.00 33 1013.5
20260504224202 23 56 0.0 3.2 0.00 0.00 0.00 33 1013.6
20260504223658 23 225 3.2 3.2 0.00 0.00 0.00 33 1013.4
20260504223154 23 135 3.2 3.2 0.00 0.00 0.00 32 1013.5
20260504222651 23 186 0.0 6.4 0.00 0.00 0.00 32 1013.6
20260504222148 23 333 3.2 4.8 0.00 0.00 0.00 34 1013.5
20260504221645 23 147 3.2 4.8 0.00 0.00 0.00 32 1013.5
20260504221142 23 128 0.0 6.4 0.00 0.00 0.00 31 1013.4
20260504220638 24 268 0.0 6.4 0.00 0.00 0.00 31 1013.4
20260504220136 24 169 4.8 6.4 0.00 0.00 0.00 32 1013.4
20260504215632 24 351 0.0 4.8 0.00 0.00 0.00 32 1013.4
20260504215130 25 146 1.6 8.0 0.00 0.00 0.00 31 1013.3
20260504214626 25 10 1.6 6.4 0.00 0.00 0.00 31 1013.5
20260504214122 25 129 0.0 3.2 0.00 0.00 0.00 31 1013.4
20260504213619 25 100 3.2 4.8 0.00 0.00 0.00 31 1013.3
20260504213116 25 293 0.0 6.4 0.00 0.00 0.00 30 1013.4
20260504212612 25 256 3.2 4.8 0.00 0.00 0.00 31 1013.4
20260504212109 25 65 1.6 4.8 0.00 0.00 0.00 30 1013.3
20260504211606 25 177 3.2 3.2 0.00 0.00 0.00 30 1013.3
20260504211102 25 103 1.6 3.2 0.00 0.00 0.00 29 1013.4
20260504210600 25 133 3.2 6.4 0.00 0.00 0.00 29 1013.4
20260504210056 26 358 0.0 6.4 0.00 0.00 0.00 29 1013.4
20260504205554 26 235 0.0 6.4 0.00 0.00 0.00 29 1013.4
20260504205052 26 240 4.8 4.8 0.00 0.00 0.00 29 1013.6
20260504204550 26 78 3.2 4.8 0.00 0.00 0.00 31 1013.7
20260504204049 26 146 1.6 3.2 0.00 0.00 0.00 31 1013.5
20260504203546 26 163 1.6 4.8 0.00 0.00 0.00 29 1013.5
20260504203044 26 138 0.0 3.2 0.00 0.00 0.00 30 1013.7
20260504202539 26 355 3.2 3.2 0.00 0.00 0.00 30 1013.9
20260504202036 26 236 0.0 4.8 0.00 0.00 0.00 30 1013.8
20260504201533 25 83 3.2 4.8 0.00 0.00 0.00 30 1013.9
20260504201031 25 161 3.2 6.4 0.00 0.00 0.00 30 1013.9
20260504200527 26 105 0.0 6.4 0.00 0.00 0.00 30 1014.0
20260504200024 25 63 4.8 4.8 0.00 0.00 0.00 30 1013.8
20260504195520 25 166 1.6 3.2 0.00 0.00 0.00 30 1014.1
20260504195017 25 136 4.8 4.8 0.00 0.00 0.00 31 1014.4
20260504194513 25 147 3.2 3.2 0.00 0.00 0.00 31 1014.2
20260504194008 25 151 1.6 4.8 0.00 0.00 0.00 31 1014.2
20260504193506 25 30 1.6 4.8 0.00 0.00 0.00 30 1014.4
20260504193005 25 80 0.0 4.8 0.00 0.00 0.00 29 1014.5
20260504192502 25 142 1.6 3.2 0.00 0.00 0.00 31 1014.6
20260504192000 25 195 1.6 4.8 0.00 0.00 0.00 31 1014.6
20260504191458 25 105 3.2 4.8 0.00 0.00 0.00 31 1014.7
20260504190953 25 80 3.2 4.8 0.00 0.00 0.00 31 1014.8
20260504190449 25 111 0.0 1.6 0.00 0.00 0.00 32 1014.8
20260504185946 25 174 4.8 8.0 0.00 0.00 0.00 31 1015.0
20260504185443 25 142 1.6 3.2 0.00 0.00 0.00 32 1015.1
20260504184939 25 56 0.0 4.8 0.00 0.00 0.00 33 1015.0
20260504184435 25 27 1.6 6.4 0.00 0.00 0.00 34 1015.0
20260504183931 24 351 3.2 4.8 0.00 0.00 0.00 32 1015.2
20260504183428 25 143 3.2 4.8 0.00 0.00 0.00 32 1015.2
20260504182926 25 190 3.2 3.2 0.00 0.00 0.00 33 1015.5
20260504182423 25 343 3.2 4.8 0.00 0.00 0.00 34 1015.3
20260504181920 25 208 4.8 4.8 0.00 0.00 0.00 34 1015.6
20260504181417 24 148 0.0 3.2 0.00 0.00 0.00 34 1015.5
20260504180916 24 189 0.0 4.8 0.00 0.00 0.00 34 1015.6
20260504180414 24 261 1.6 3.2 0.00 0.00 0.00 32 1015.7
20260504175912 23 341 3.2 3.2 0.00 0.00 0.00 35 1015.6
20260504175409 23 171 1.6 4.8 0.00 0.00 0.00 35 1015.6
20260504174906 23 137 1.6 4.8 0.00 0.00 0.00 35 1015.6
20260504174404 23 131 1.6 4.8 0.00 0.00 0.00 35 1015.8
20260504173901 23 29 3.2 8.0 0.00 0.00 0.00 38 1015.7
20260504173357 23 152 0.0 6.4 0.00 0.00 0.00 36 1015.8
20260504172854 23 136 3.2 6.4 0.00 0.00 0.00 35 1015.9
20260504172351 23 189 3.2 3.2 0.00 0.00 0.00 36 1015.8
20260504171847 23 208 0.0 3.2 0.00 0.00 0.00 36 1015.9
20260504171344 23 6 1.6 4.8 0.00 0.00 0.00 34 1015.8
20260504170842 23 190 0.0 3.2 0.00 0.00 0.00 33 1015.8
20260504170338 23 182 0.0 6.4 0.00 0.00 0.00 33 1015.9
20260504160256 21 57 0.0 4.8 0.00 0.00 0.00 39 1017.0
20260504150722 17 340 0.0 3.2 0.00 0.00 0.00 46 1018.2
20260504150218 17 214 0.0 1.6 0.00 0.00 0.00 47 1018.1
20260504141148 14 348 1.6 6.4 0.00 0.00 0.00 51 1017.9
20260504140645 13 169 0.0 1.6 0.00 0.00 0.00 53 1017.8
20260504140140 13 129 0.0 0.0 0.00 0.00 0.00 61 1017.9
20260504130608 10 348 1.6 1.6 0.00 0.00 0.00 72 1017.8
20260504130105 9 158 0.0 1.6 0.00 0.00 0.00 73 1017.6
20260504110456 3 322 0.0 1.6 0.00 0.00 0.00 87 1017.2
20260504100418 5 261 1.6 3.2 0.00 0.00 0.00 84 1017.5
20260504081811 5 295 1.6 3.2 0.00 0.00 0.00 79 1017.1
20260504081308 5 309 3.2 3.2 0.00 0.00 0.00 79 1017.0
20260504080804 6 27 0.0 0.0 0.00 0.00 0.00 79 1017.0
20260504080301 6 323 1.6 3.2 0.00 0.00 0.00 79 1017.0
20260504070228 7 323 0.0 3.2 0.00 0.00 0.00 75 1016.7
20260504060149 7 331 3.2 3.2 0.00 0.00 0.00 72 1017.2
20260504050617 8 346 3.2 3.2 0.00 0.00 0.00 72 1017.4
20260504050114 8 323 1.6 3.2 0.00 0.00 0.00 72 1017.6
20260504045611 8 325 0.0 1.6 0.00 0.00 0.00 72 1017.4
20260504045106 8 32 0.0 1.6 0.00 0.00 0.00 71 1017.3
20260504044604 8 320 1.6 1.6 0.00 0.00 0.00 72 1017.1
20260504044100 8 21 0.0 1.6 0.00 0.00 0.00 69 1017.3
20260504043558 8 353 1.6 3.2 0.00 0.00 0.00 71 1017.1
20260504043055 8 312 3.2 3.2 0.00 0.00 0.00 71 1017.4
20260504042552 8 347 0.0 3.2 0.00 0.00 0.00 67 1017.2
20260504042049 8 344 1.6 4.8 0.00 0.00 0.00 68 1017.0
20260504041545 8 7 1.6 3.2 0.00 0.00 0.00 70 1017.2
20260504041041 8 348 0.0 1.6 0.00 0.00 0.00 69 1017.2
20260504040538 9 224 0.0 3.2 0.00 0.00 0.00 68 1017.0